Location: Missouri Flat Drift Fence
(38.8196°N, 119.1343°W)
Time: 03:50:21
(UTC+00:00)

Daily predictions for brighter satellites

Satellite Brightness Start Highest point End
(mag) Time Altitude Azimuth Time Altitude Azimuth Time Altitude Azimuth
STARLINK-1233 3.6 03:34:42 10° SW 03:38:50 83° SE 03:42:59 10° NE
STARLINK-1148 4.0 03:37:10 10° NW 03:41:15 56° NE 03:45:19 10° ESE
ERBS 3.5 03:39:16 10° S 03:41:50 21° SE 03:44:25 10° ENE
STARLINK-1204 3.7 03:39:42 10° SW 03:43:50 89° NW 03:47:58 10° NE
STARLINK-1158 3.9 03:42:08 10° NW 03:46:15 62° NE 03:50:20 10° ESE
DNEPR-1 R/B 4.3 03:41:45 10° NW 03:47:51 76° WSW 03:52:45 10° SSE
STARLINK-1238 3.8 03:44:41 10° SW 03:48:48 81° NW 03:52:58 10° NE
Okean 1-7 3.6 03:45:22 10° SSE 03:49:19 37° E 03:53:16 10° NNE
MetOp-A 4.3 03:45:38 10° SSE 03:50:52 59° ENE 03:56:08 10° N
STARLINK-1162 3.8 03:47:07 10° NW 03:51:15 68° NE 03:55:21 10° ESE
Cosmos 2346 Rocket 4.5 03:45:35 10° S 03:51:34 66° E 03:57:39 10° NNE
Cosmos 1733 Rocket 3.7 03:47:24 10° NNW 03:51:42 57° W 03:55:56 10° S
Cosmos 1862 Rocket 4.5 03:48:03 10° SSW 03:52:23 53° W 03:56:42 10° N
STARLINK-1201 3.9 03:49:40 10° SW 03:53:48 73° NW 03:57:57 10° NE
Cosmos 1666 3.7 03:52:19 10° NNW 03:56:02 47° W 03:59:43 10° SSW
Cosmos 2082 Rocket 4.3 03:56:18 10° NNE 03:58:46 13° NE 04:01:12 10° ENE
STARLINK-1206 4.1 03:54:39 10° WSW 03:58:46 67° NW 04:02:54 10° NE
CZ-2C R/B 3.6 03:54:27 10° NNE 03:58:56 74° ESE 04:03:27 10° S
Cosmos 407 Rocket 4.1 03:55:16 10° N 04:00:21 43° ENE 04:05:09 11° SE
STARLINK-1159 3.6 03:57:02 10° NW 04:01:11 83° NE 04:04:54 13° SE
Cosmos 1975 4.0 03:58:04 10° NNE 04:01:34 27° ENE 04:04:35 12° SE
SL-08 RB Rocket 4.0 03:57:04 10° S 04:01:42 72° W 04:06:16 10° NNW
Tsikada Rocket 4.1 03:55:53 10° S 04:01:57 60° E 04:08:00 10° NNE
USA 186 3.2 04:00:26 10° SSW 04:02:31 26° W 04:04:44 10° NW
Cosmos 1833 Rocket 4.3 03:58:46 10° N 04:02:56 21° NE 04:07:04 10° ESE
STARLINK-1205 4.2 03:59:40 10° WSW 04:03:46 61° NW 04:07:52 10° NE
ARGOS 3.9 03:58:49 10° S 04:04:02 54° W 04:09:19 10° NNW
Meteor 1-4 Rocket 3.4 04:01:45 10° SSE 04:04:44 28° E 04:07:44 10° NNE
STARLINK-1087 1.9 04:02:57 10° NW 04:04:53 57° NE 04:06:03 19° ESE
Okean 1 3.3 04:00:58 10° S 04:04:58 71° E 04:09:01 10° NNE
CZ-2C R/B 2.7 03:59:57 10° NNE 04:05:35 80° ESE 04:11:12 10° S
STARLINK-1171 3.6 04:02:02 10° NW 04:06:12 90° SW 04:09:43 14° SE
STARLINK-1237 4.5 04:02:40 10° S 04:06:14 28° SE 04:09:48 10° ENE
NOSS 2-3 (E) 3.6 04:02:22 10° SSW 04:06:32 88° WNW 04:11:18 10° NNE
ISS -0.8 04:07:50 10° N 04:08:38 11° N 04:09:27 10° NNE
Aureole 1 Rocket 4.1 04:04:35 10° N 04:08:44 39° ENE 04:13:15 13° SE
STARLINK-1218 4.4 04:04:40 10° WSW 04:08:44 55° NW 04:12:49 10° NE
Cosmos 1515 4.0 04:06:44 10° SSE 04:10:22 44° E 04:14:01 10° NNE
STARLINK-1155 3.6 04:07:00 10° NW 04:11:09 82° SW 04:14:28 15° SE
STARLINK-1202 4.3 04:07:32 10° SSW 04:11:11 31° SE 04:14:52 10° ENE
STARLINK-1166 3.7 04:11:59 10° NW 04:16:07 74° SW 04:19:15 17° SE
SPOT 3 Rocket 3.6 04:13:52 10° SSE 04:19:00 85° WSW 04:24:11 10° NNW
Resurs 01 Rocket 1.7 04:16:24 13° SSE 04:20:17 61° ENE 04:24:42 10° N
CREW DRAGON DEMO-1 DEB 3.1 04:17:17 10° NW 04:20:22 62° NE 04:22:16 20° ESE
STARLINK-1165 3.8 04:16:58 10° NW 04:21:05 67° SW 04:24:02 18° SE
STARLINK-1246 4.0 04:17:15 10° SSW 04:21:05 38° SE 04:24:57 10° ENE
Cosmos 1782 Rocket 3.7 04:19:26 10° N 04:23:53 62° E 04:27:27 15° SSE
Cosmos 1624 Rocket 4.0 04:19:24 10° SSW 04:24:41 88° ESE 04:30:03 10° NNE
Cosmos 1190 Rocket 4.2 04:19:34 10° N 04:24:43 59° ENE 04:28:37 17° SE
Cosmos 44 Rocket 4.0 04:20:09 10° NW 04:24:53 50° WSW 04:29:26 11° S
Cosmos 614 Rocket 3.9 04:20:22 10° NNW 04:25:28 87° WSW 04:29:56 14° SSE
Sich 1 Rocket 4.2 04:21:34 10° N 04:25:56 42° ENE 04:28:50 19° SE
STARLINK-1224 3.9 04:22:08 10° SSW 04:26:02 43° SE 04:29:58 10° ENE
STARLINK-1169 3.9 04:21:57 10° NW 04:26:02 60° SW 04:28:49 19° SSE
Cosmos 1703 Rocket 3.9 04:22:19 10° SSW 04:26:36 66° W 04:30:56 10° N
NOSS 2-3 (D) 4.1 04:22:30 10° SW 04:26:38 61° NW 04:31:22 10° NNE
Cosmos 1140 Rocket 3.7 04:22:44 10° N 04:27:51 56° ENE 04:31:31 19° SE
Cosmos 2278 Rocket 2.2 04:23:48 10° S 04:29:21 60° ESE 04:34:57 10° NNE
H-2A R/B 4.2 04:26:31 10° SW 04:30:24 23° W 04:34:22 10° NW
STARLINK-1225 3.8 04:27:01 10° SSW 04:31:00 47° SE 04:34:58 10° ENE
STARLINK-1178 4.0 04:26:58 10° WNW 04:31:00 54° SW 04:33:36 20° SSE
Cosmos 1544 3.1 04:30:02 10° N 04:33:39 62° E 04:35:42 23° SSE
Cosmos 389 Rocket 4.2 04:30:35 10° SW 04:33:43 33° WNW 04:36:54 10° N
STARLINK-1230 3.7 04:31:56 10° SSW 04:35:57 53° SE 04:39:59 10° ENE
STARLINK-1120 4.2 04:31:58 10° WNW 04:35:58 48° SW 04:38:23 21° SSE
SAR-Lupe-2 4.1 04:33:08 10° NNE 04:36:31 38° E 04:38:00 26° SSE
Okean 2 Rocket 3.9 04:35:09 10° NNE 04:39:11 34° ENE 04:41:03 24° ESE
STARLINK-1243 3.6 04:36:51 10° SW 04:40:54 59° SE 04:44:59 10° NE
STARLINK-1131 4.4 04:36:59 10° WNW 04:40:55 43° SW 04:43:09 22° SSE
Hubble Space Telescope 2.4 04:38:46 10° SW 04:41:35 18° S 04:42:04 17° S
Terra 3.8 04:40:27 12° E 04:42:19 15° ENE 04:45:00 10° NNE
ERS-1 Rocket 4.2 04:40:12 18° ESE 04:42:32 26° ENE 04:46:39 10° NNE
Meteor 1-19 Rocket 4.4 04:37:11 10° SSW 04:42:44 75° W 04:48:30 10° N
STARLINK-1069 4.5 04:39:17 10° NW 04:43:14 42° NE 04:45:37 21° E
Cosmos 1356 3.8 04:40:59 10° NNW 04:44:24 60° W 04:46:39 19° S
STARLINK-1236 3.5 04:41:48 10° SW 04:45:54 66° SE 04:50:00 10° NE
STARLINK-1085 4.3 04:44:15 10° NW 04:48:15 46° NE 04:50:25 24° E
Cosmos 1954 Rocket 4.2 04:45:33 10° N 04:50:45 58° ENE 04:53:30 27° SE
EXPRESS MD2 3.1 04:49:08 10° SSW 04:51:48 49° SE 04:56:28 10° ENE
Cosmos 2151 Rocket 4.5 04:48:40 10° NNE 04:52:48 34° ENE 04:54:13 27° ESE
STARLINK-1086 4.2 04:49:11 10° NW 04:53:14 50° NE 04:55:11 27° E
Lacrosse 5 3.4 04:49:18 10° NNW 04:53:37 27° NE 04:57:00 14° E
Spot 2 Rocket 3.5 04:51:29 26° SSE 04:54:19 66° ENE 04:59:20 10° N
Cosmos 371 Rocket 3.4 04:51:29 20° S 04:54:38 53° ESE 04:59:23 10° NNE
ATLAS 3B CENTAUR R/B 3.8 04:45:00 10° SW 04:55:35 29° S 04:58:08 24° SE
STARLINK-1269 3.5 04:51:41 10° SW 04:55:48 81° SE 04:59:57 10° NE
Cosmos 909 Rocket 4.3 04:49:43 10° NNW 04:57:18 75° WSW 05:01:31 23° SSE
STARLINK-1095 4.0 04:54:10 10° NW 04:58:14 55° NE 04:59:59 30° E
STARLINK-1200 3.5 04:56:40 10° SW 05:00:48 89° SE 05:04:57 10° NE
IGS 5A 3.5 05:00:08 36° SE 05:01:39 63° ENE 05:05:46 10° N
STARLINK-1077 3.9 04:59:07 10° NW 05:03:13 60° NE 05:04:45 35° ESE
Cosmos 676 Rocket 3.9 04:59:58 10° NNW 05:05:14 82° ENE 05:07:45 32° SSE
GPS 2-04 Rocket1 3.5 05:02:02 10° SW 05:04:23 29° SSW 05:04:23 29° SSW
STARLINK-1192 3.6 05:01:39 10° SW 05:05:47 84° NW 05:09:57 10° NE
MetOp-B 4.2 05:02:33 23° S 05:05:55 78° WSW 05:11:18 10° NNW
Okean 3 3.6 05:04:36 19° SSW 05:07:39 73° W 05:11:58 10° N
CARTOSAT-1 4.3 05:07:08 32° ESE 05:08:10 38° ENE 05:12:10 10° N
STARLINK-1075 3.8 05:04:05 10° NW 05:08:12 66° NE 05:09:32 40° ESE
STARLINK-1244 3.7 05:06:38 10° SW 05:10:46 76° NW 05:14:54 10° NE
Meteor 2-4 Rocket 3.9 05:05:33 10° SSW 05:10:55 68° W 05:16:15 10° N
COSMOS 2406 3.4 05:05:38 10° NNW 05:11:23 72° WSW 05:14:26 29° S
Cosmos 2279 Rocket 4.0 05:06:17 10° N 05:12:31 72° E 05:15:40 31° SSE
Intercosmos 24 3.6 05:09:29 10° N 05:13:03 69° E 05:13:41 54° SE
STARLINK-1093 3.6 05:09:03 10° NW 05:13:11 73° NE 05:14:19 46° ESE
Meteor 1-12 Rocket 4.2 05:09:39 10° N 05:15:20 81° E 05:18:02 33° SSE
STARLINK-1138 3.9 05:11:37 10° WSW 05:15:43 69° NW 05:19:51 10° NE
Cosmos 1461 3.6 05:17:13 35° E 05:17:13 35° E 05:20:27 10° NE
GENESIS II 4.1 05:12:56 10° NNW 05:16:58 85° ENE 05:17:43 57° SE
ERBS 4.4 05:15:06 10° WSW 05:18:00 28° NW 05:20:55 10° NNE
STARLINK-1074 3.6 05:14:01 10° NW 05:18:10 80° NE 05:19:06 52° ESE
Meteor 1-13 Rocket 4.1 05:16:08 22° S 05:19:50 89° W 05:25:33 10° N
STARLINK-1143 4.0 05:16:36 10° WSW 05:20:42 63° NW 05:24:49 10° NE
STARLINK-1203 4.3 05:21:20 10° WSW 05:25:28 57° NW 05:29:37 10° NE
STARLINK-1241 4.2 05:21:38 10° WSW 05:25:42 57° NW 05:29:47 10° NE
SPOT 5 3.2 05:26:08 42° SE 05:27:39 60° ENE 05:32:51 10° N
STARLINK-1088 3.4 05:23:58 10° NW 05:28:07 85° SW 05:28:40 66° SE
Cosmos 2297 3.8 05:26:41 40° SSE 05:28:11 51° ESE 05:33:42 10° NNE
Cosmos 1300 Rocket 3.7 05:26:00 10° NNW 05:30:26 71° W 05:31:43 44° SSW
STARLINK-1239 4.4 05:26:38 10° WSW 05:30:41 52° NW 05:34:44 10° NE
STARLINK-1115 3.4 05:28:57 10° NW 05:33:05 77° SW 05:33:26 70° S
Landsat 7 4.2 05:33:01 35° SSW 05:34:49 56° W 05:39:31 10° NNW
Cosmos 304 Rocket 3.7 05:36:56 57° SSE 05:37:39 66° ESE 05:42:24 10° NNE
STARLINK-1076 3.5 05:33:56 10° NW 05:38:03 69° SW 05:38:13 68° SSW
Cosmos 1452 Rocket 4.0 05:33:53 13° SSW 05:38:32 59° WNW 05:43:46 10° N
Cosmos 1092 Rocket 4.4 05:40:11 38° ESE 05:41:16 41° E 05:46:58 10° NNE
STARLINK-1092 3.7 05:38:54 10° NW 05:42:58 63° SW 05:42:58 63° SW
Cosmos 1674 Rocket 3.6 05:42:11 54° SSW 05:43:06 76° W 05:47:31 10° N
Cosmos 2082 Rocket 2.1 05:38:02 10° NNW 05:43:47 81° ENE 05:45:18 51° SE
ISS -2.1 05:43:19 10° NNW 05:46:18 28° NNE 05:46:23 28° NNE
Cosmos 1833 Rocket 3.0 05:41:44 10° NNW 05:47:14 57° WSW 05:48:58 40° SSW
STARLINK-1080 3.9 05:43:57 10° WNW 05:47:49 55° WSW 05:47:49 55° WSW
Cosmos 332 Rocket 4.2 05:45:40 25° SW 05:48:23 60° WNW 05:53:15 10° N
Cosmos 1378 Rocket 3.4 05:48:32 70° SSW 05:49:02 87° WNW 05:53:27 10° N
Cosmos 1437 Rocket 3.4 05:49:58 44° WSW 05:50:31 48° WNW 05:54:12 10° N
STARLINK-1090 4.1 05:48:55 10° WNW 05:52:34 48° WSW 05:52:34 48° WSW
Cosmos 2369 Rocket 3.6 05:54:59 23° E 05:54:59 23° E 05:58:19 10° NE
SL-4 R/B 3.0 05:51:06 10° NNW 05:52:57 32° NW 05:52:57 32° NW
Cosmos 1943 Rocket 2.9 05:56:16 35° E 05:56:16 35° E 06:00:38 10° NE
Resurs 01 Rocket 4.3 05:55:47 10° WSW 05:57:08 11° W 05:58:30 10° WNW
STARLINK-1089 4.4 05:53:56 10° WNW 05:57:20 42° WSW 05:57:20 42° WSW
Cosmos 1066 Rocket 4.2 06:00:35 45° SSW 06:02:14 73° W 06:07:37 10° N
Cosmos 1975 Rocket 4.0 06:03:13 37° ENE 06:03:13 37° ENE 06:06:31 10° NNE
STARLINK-1091 4.4 06:01:12 10° NW 06:05:11 44° NE 06:05:17 44° NE
STARLINK-1072 4.3 06:06:09 10° NW 06:10:04 48° NNE 06:10:04 48° NNE
STARLINK-1096 4.3 06:11:07 10° NW 06:14:51 51° NNE 06:14:51 51° NNE
Cosmos 1741 Rocket 4.1 06:10:43 10° NNW 06:15:52 63° WSW 06:16:21 59° SW
USA 215 4.5 06:12:35 14° E 06:17:24 35° NNE 06:23:13 10° NNW
Cosmos 1766 4.1 06:13:29 10° N 06:16:29 47° NNE 06:16:29 47° NNE
Terra 2.1 06:19:20 56° WSW 06:19:33 56° W 06:24:15 10° NNW
STARLINK-1079 4.3 06:16:05 10° NW 06:19:39 53° N 06:19:39 53° N
SeaSat 1 2.3 06:15:30 10° NNE 06:20:17 78° E 06:20:17 78° E
ERS-1 Rocket 4.1 06:20:12 31° WSW 06:21:09 34° W 06:25:43 10° NNW
Cosmos 1733 4.5 06:18:54 10° N 06:21:24 36° NNE 06:21:24 36° NNE
STARLINK-1116 4.3 06:21:02 10° NW 06:24:25 52° NNW 06:24:25 52° NNW
Okean 1 Rocket 3.8 06:24:25 10° NNW 06:28:35 45° W 06:28:35 45° W
Cosmos 2026 Rocket 3.8 06:30:50 68° SSE 06:31:39 79° E 06:37:59 10° N
Spot 4 4.5 06:33:25 46° ENE 06:33:25 46° ENE 06:37:47 10° N
Lacrosse 5 2.3 06:31:54 10° NW 06:36:11 52° W 06:36:11 52° W
Cosmos 1455 Rocket 3.9 06:34:56 10° N 06:38:12 45° NNE 06:38:12 45° NNE
CENTAUR R/B 4.3 06:35:29 10° NNW 06:42:49 36° NE 06:48:18 19° E
Cosmos 1302 Rocket 4.2 06:58:44 63° WNW 06:58:51 63° WNW 07:04:07 10° NNE
Cosmos 1470 4.5 06:55:29 10° N 06:57:38 30° NNE 06:57:38 30° NNE
ATLAS 2AS CENTAUR R/B 3.0 07:04:53 59° SE 07:05:31 61° ESE 07:13:21 10° NE
ALOS 2 3.7 07:07:57 39° NNE 07:07:57 39° NNE 07:11:07 10° N
COSMOS 2455 4.0 07:11:20 31° E 07:11:20 31° E 07:15:17 10° NE
Nimbus 7 Rocket 4.3 07:09:14 10° NNE 07:15:21 88° ESE 07:15:28 86° SSE
NOSS 3-2 (A) 4.1 07:08:22 10° NNW 07:16:07 80° ENE 07:18:11 56° SE
APEX 4.3 07:17:51 84° SSW 07:18:06 89° W 07:24:02 10° NNE
Cosmos 1726 4.4 07:16:37 10° N 07:18:10 21° NNE 07:18:10 21° NNE
ATLAS CENTAUR R/B 3.8 07:26:10 17° NE 07:26:10 17° NE 07:27:17 10° NE
USA 238 DEB 3.7 07:17:32 10° NNW 07:24:51 88° ENE 07:25:54 69° SE
USA 238 3.7 07:17:38 10° NNW 07:24:57 87° ENE 07:26:02 69° SE
Cosmos 2082 Rocket 4.4 07:24:49 10° WNW 07:27:03 12° W 07:27:09 12° W
Cosmos 1992 Rocket 4.3 07:29:06 63° NNE 07:29:06 63° NNE 07:33:27 10° NNE
Cosmos 1417 Rocket 4.5 07:28:11 10° NNW 07:34:28 70° W 07:34:37 70° WSW
Cosmos 2369 Rocket 3.0 07:36:43 40° W 07:37:30 43° WNW 07:42:53 10° N
Cosmos 1943 Rocket 3.6 07:37:44 25° W 07:39:20 29° WNW 07:44:12 10° N
Meteor 2-8 Rocket 4.4 07:38:06 10° NNW 07:44:08 74° W 07:44:08 74° W
Cosmos 2315 Rocket 4.2 07:40:45 10° N 07:46:51 56° E 07:47:04 56° E
ATLAS 5 CENTAUR R/B 4.4 07:51:28 15° N 07:51:28 15° N 07:51:59 10° N
FALCON 9 R/B 3.7 07:52:06 36° ESE 07:52:06 36° ESE 08:00:29 10° E
Helios 1A 4.4 07:55:22 37° NNW 07:55:22 37° NNW 07:57:56 10° NNW
EO 1 Delta rocket 4.4 07:52:51 10° NNE 07:58:01 63° NE 07:58:01 63° NE
USA 215 3.1 07:59:54 77° SSW 08:00:02 77° SW 08:06:36 10° NW
S3M 4.3 07:56:47 10° NNW 08:02:38 51° W 08:02:38 51° W
Helios 1B rocket 4.1 08:01:48 10° NNE 08:04:05 30° NE 08:04:05 30° NE
Cosmos 1953 4.4 08:06:34 10° NNW 08:08:22 23° NW 08:08:22 23° NW
Meteor 2-5 Rocket 3.9 08:14:10 65° ENE 08:14:10 65° ENE 08:19:12 10° NNE
Meteor 2-21 4.5 08:17:26 68° E 08:17:29 68° E 08:23:37 10° NNE
NOSS 3-2 (C) 4.1 08:14:54 10° NW 08:22:38 66° WSW 08:23:34 62° SSW
NOSS 3-4 (A) 4.2 08:26:47 37° W 08:28:10 43° NW 08:34:07 10° NNE
NOSS 3-4 (C) 4.2 08:26:54 38° W 08:28:15 43° NW 08:34:13 10° NNE
ATLAS 3B R/B 2.9 08:25:34 10° NNW 08:32:23 67° NE 08:34:40 44° ESE
SL-4 R/B 3.6 08:33:11 37° NW 08:33:41 38° NNW 08:38:10 10° NE
CENTAUR R/B 3.2 08:25:53 10° NW 08:34:07 65° WSW 08:35:26 59° SSW
Cosmos 1867 3.8 08:32:27 10° NNW 08:37:00 62° NW 08:37:00 62° NW
Meteor 2-21 Rocket 4.3 08:44:33 82° SSE 08:44:50 86° E 08:51:01 10° N
BREEZE-M DEB (TANK) 4.1 08:42:36 10° NW 08:46:13 58° NNE 08:54:08 10° ESE
Cosmos 2297 Rocket 4.0 08:44:31 10° N 08:49:12 26° ENE 08:53:28 11° ESE
Cosmos 921 Rocket 4.0 08:50:59 45° NNE 08:50:59 45° NNE 08:54:01 10° NNE
SJ 16-02 3.8 08:49:42 10° NNE 08:52:39 17° ENE 08:54:43 13° E
Meteor 2-14 Rocket 4.4 08:53:39 66° W 08:53:55 67° W 09:00:02 10° N
COSMOS 2455 3.8 08:54:27 33° W 08:55:45 37° NW 09:01:18 10° NNE
ATLAS 2AS CENTAUR R/B 4.2 08:52:16 20° W 08:56:57 36° NW 09:04:08 10° NNE
Cosmos 2058 Rocket 4.0 08:54:47 10° NNW 08:57:56 45° NNW 08:57:56 45° NNW
Timation 2 Rocket 3.9 08:54:37 10° NNW 09:00:57 82° ENE 09:01:51 66° SE
SL-16 R/B 3.5 08:58:48 26° ESE 09:01:44 42° ENE 09:07:28 10° N
ATLAS CENTAUR R/B 3.3 09:02:19 23° NW 09:02:19 23° NW 09:05:40 10° N
Cosmos 1745 Rocket 3.9 09:01:58 68° SSE 09:02:39 77° E 09:08:47 10° N
ADEOS II 4.3 09:00:39 10° ENE 09:03:20 14° E 09:05:08 12° ESE
Cosmos 1626 Rocket 4.1 09:08:29 56° NNE 09:08:29 56° NNE 09:11:57 10° N
SL-08 ROCKET BODY 4.2 09:10:22 75° S 09:10:54 86° E 09:16:47 10° N
CZ-2D R/B 2.6 09:08:26 10° NNE 09:13:29 47° E 09:13:54 46° ESE
RESURS DK-1 3.8 09:14:57 31° NW 09:14:57 31° NW 09:18:01 10° N
Resurs 1-4 Rocket 2.5 09:10:12 10° NNE 09:15:22 51° E 09:15:51 49° ESE
Cosmos 1626 4.2 09:18:06 21° NW 09:18:06 21° NW 09:19:52 10° NNW
CZ-4C R/B 4.0 09:20:36 55° ENE 09:20:36 55° ENE 09:24:43 10° N
Cosmos 1697 Rocket 3.7 09:20:30 33° SE 09:21:25 35° ESE 09:26:30 10° NE
GEOS 3 Rocket 3.5 09:23:49 67° SE 09:24:33 88° ENE 09:29:51 10° NW
Cosmos 2227 Rocket 3.2 09:20:03 10° N 09:25:27 43° ENE 09:29:33 17° SE
Cosmos 1356 Rocket 4.1 09:27:07 10° NNW 09:30:19 50° NNW 09:30:19 50° NNW
CZ-4B R/B 4.0 09:27:13 10° NNE 09:32:19 53° E 09:33:12 48° SE
Cosmos 1812 Rocket 3.6 09:29:34 10° N 09:33:56 76° ENE 09:33:56 76° ENE
Meteor 2-1 Rocket 4.1 09:29:14 10° N 09:34:47 83° E 09:35:51 59° SSE
Cosmos 1656 3.5 09:35:31 68° SSW 09:36:18 88° ESE 09:41:59 10° NNE
NPP 3.7 09:31:08 10° NNE 09:36:31 69° ESE 09:37:28 57° SSE
Cosmos 1825 Rocket 4.0 09:40:37 50° ESE 09:40:52 50° E 09:45:04 10° NNE
Meteor 2-10 Rocket 3.7 09:35:47 10° N 09:41:00 64° E 09:42:24 45° SE
Cosmos 1602 Rocket 4.0 09:41:56 51° NW 09:41:56 51° NW 09:45:41 10° N
ATLAS CENTAUR R/B 3.4 09:38:46 10° NNW 09:41:50 42° NE 09:48:35 10° ESE
Cosmos-2242 3.9 09:43:43 10° N 09:47:47 42° E 09:48:53 35° ESE
Cosmos 841 Rocket 4.4 09:47:35 34° SE 09:49:01 41° ESE 09:53:55 10° NNE
Cosmos 1709 Rocket 3.8 09:50:53 52° SSW 09:52:29 79° W 09:58:38 10° N
CBERS-1 4.4 09:48:19 10° NNE 09:53:20 55° E 09:54:48 41° SSE
CZ-4C R/B 1.8 09:56:14 62° S 09:57:04 79° ESE 10:02:42 10° NE
Alouette 2 Rocket 3.8 09:53:27 10° N 09:59:03 77° ENE 09:59:59 53° SSE
IKONOS-2 4.5 10:00:07 67° W 10:00:07 67° W 10:04:18 10° NNW
Cosmos 2369 3.7 10:00:00 47° S 10:01:36 73° ESE 10:07:15 10° NNE
Lacrosse 4 Rocket 3.7 09:59:34 10° N 10:03:08 24° NE 10:06:37 10° ESE
Cosmos 1328 3.6 10:04:00 81° SE 10:04:09 84° E 10:08:09 10° N
Cosmos 1763 Rocket 3.4 10:04:32 55° SW 10:05:32 71° WNW 10:10:38 10° NNE
Cosmos 1455 2.2 10:01:56 10° N 10:05:18 68° NW 10:05:18 68° NW
GP-B 3.0 10:01:19 10° N 10:05:46 88° E 10:06:31 62° S
UNK 3.8 10:05:51 55° WSW 10:05:59 56° W 10:10:31 10° NNW
Cosmos 2360 4.5 10:05:06 38° S 10:07:05 61° ESE 10:12:42 10° NNE
Meteor 1-21 Rocket 4.5 10:07:04 44° WSW 10:08:18 52° WNW 10:13:51 10° N
IRS-1D 3.6 10:04:25 10° NNE 10:09:46 80° ESE 10:11:34 43° S
STARLINK-1211 4.4 10:07:00 10° NW 10:11:04 52° NE 10:15:06 10° ESE
Cosmos 1980 Rocket 2.7 10:12:20 31° SSE 10:14:43 52° ESE 10:20:11 10° NNE
STARLINK-1245 4.2 10:11:57 10° NW 10:16:03 57° NE 10:20:07 10° ESE
Cosmos 1758 Rocket 4.0 10:19:54 42° W 10:20:15 43° W 10:24:26 10° N
H-2A R/B 4.5 10:17:37 10° ESE 10:20:58 22° ENE 10:24:23 10° NNE
STARLINK-1233 4.0 10:16:55 10° NW 10:21:02 63° NE 10:25:07 10° ESE
Cosmos 2219 3.5 10:16:20 10° NW 10:21:40 44° WSW 10:22:42 40° SW
ATLAS 3B R/B 3.9 10:17:21 10° WNW 10:21:51 23° W 10:21:51 23° W
STARLINK-1204 3.9 10:21:53 10° NW 10:26:02 69° NE 10:30:09 10° ESE
STARLINK-1238 3.7 10:26:52 10° NW 10:31:01 76° NE 10:35:09 10° SE
SJ 16-02 1.7 10:27:14 10° NNW 10:31:24 41° WSW 10:31:40 41° WSW
Cosmos 2297 Rocket 2.5 10:28:04 10° NW 10:33:23 44° WSW 10:35:12 33° SSW
Cosmos 2074 Rocket 4.0 10:31:05 25° S 10:34:58 87° E 10:41:18 10° N
ARIANE 5 R/B 2.8 10:30:24 10° NNE 10:35:25 63° ESE 10:38:25 24° S
STARLINK-1201 3.6 10:31:51 10° NW 10:36:00 84° NE 10:40:08 10° SE
Cosmos 1953 Rocket 3.8 10:35:44 41° SW 10:36:56 54° W 10:41:18 10° N
STARLINK-66 4.4 10:37:25 25° SE 10:37:39 26° SE 10:40:23 10° ENE
CRYOSAT 2 4.3 10:33:36 10° N 10:38:29 72° W 10:40:43 32° SSW
Cosmos 2082 3.6 10:33:39 10° NNW 10:39:20 82° WSW 10:44:56 10° SSE
Cosmos 1703 4.3 10:39:43 30° W 10:40:04 30° WNW 10:43:36 10° NNW
STARLINK-1206 3.5 10:36:49 10° NW 10:40:58 88° SW 10:45:06 10° SE
Cosmos 1898 Rocket 3.8 10:35:55 10° NNW 10:41:01 47° WSW 10:43:14 30° SSW
Cosmos 2278 3.7 10:39:26 32° SSW 10:42:10 76° WNW 10:47:51 10° NNE
Cosmos 1400 Rocket 2.9 10:38:53 10° N 10:43:02 83° E 10:45:43 21° SSE
ADEOS II 2.1 10:38:14 10° N 10:43:27 66° WNW 10:46:04 30° SSW
STARLINK-43 3.2 10:44:04 47° SW 10:45:02 86° NNW 10:48:43 10° NE
Cosmos 2263 Rocket 4.4 10:40:26 10° N 10:45:06 26° ENE 10:49:43 10° ESE
SL-16 R/B 3.4 10:43:53 26° WSW 10:45:24 29° W 10:50:41 10° NW
BREEZE M DEB (TANK) 3.3 10:42:42 10° NW 10:45:30 75° NE 10:53:28 10° ESE
STARLINK-1205 3.5 10:41:48 10° NW 10:45:57 80° SW 10:50:05 10° SE
Spot 4 Rocket 4.5 10:41:13 10° NNE 10:46:17 58° ESE 10:50:14 16° S
Cosmos 2322 Rocket 4.2 10:42:59 10° SSE 10:47:11 22° E 10:51:22 10° NE
Cosmos 1937 Rocket 3.5 10:42:22 10° NNW 10:47:32 58° WSW 10:51:16 19° S
STARLINK-75 4.2 10:48:05 27° SSE 10:48:44 29° SE 10:51:36 10° ENE
Cosmos 1842 Rocket 4.3 10:44:27 10° N 10:48:51 54° E 10:53:12 10° SSE
Cosmos 2184 Rocket 3.9 10:45:13 24° SSW 10:49:10 76° W 10:55:21 10° N
STARLINK-1218 3.5 10:46:47 10° NW 10:50:55 73° SW 10:55:01 10° SE
IRS-P3 4.2 10:46:12 10° N 10:51:28 61° WNW 10:54:23 26° SW
CZ-2D R/B 3.7 10:49:22 10° NNW 10:53:09 21° WNW 10:55:14 16° W
Resurs 1-4 Rocket 3.7 10:51:02 10° NNW 10:54:46 20° WNW 10:56:56 16° W
STARLINK-1254 3.5 10:51:46 10° NW 10:55:52 65° SW 10:59:58 10° SE
Cosmos 2208 Rocket 4.4 10:53:34 27° SW 10:56:07 49° WNW 11:01:15 10° N
Meteor 1-11 4.5 10:54:13 26° SW 10:57:15 53° WNW 11:02:44 10° N
CZ-2C R/B 3.8 10:54:31 10° NNE 10:58:02 40° E 11:01:13 12° SSE
STARLINK-22 4.4 10:57:28 23° SSE 10:58:30 28° SE 11:01:18 10° ENE
STARLINK-1231 3.6 10:56:45 10° NW 11:00:50 59° SW 11:04:53 10° SE
Cosmos 1814 Rocket 4.4 10:59:01 25° SW 11:01:54 49° WNW 11:07:05 10° N
SL-08 R/B 3.3 10:59:10 15° S 11:03:00 63° WSW 11:07:37 10° NNW
IDEFIX/ARIANE 42P 3.0 10:59:28 10° NNE 11:04:42 61° E 11:09:53 10° S
Cosmos 1697 Rocket 3.7 11:02:14 19° WSW 11:05:21 32° WNW 11:10:24 10° N
IRIDIUM 104 4.4 11:00:26 11° S 11:05:25 80° E 11:10:39 10° N
STARLINK-1232 3.7 11:01:46 10° WNW 11:05:48 53° SW 11:09:49 10° SSE
Cosmos 1610 Rocket 4.4 11:00:40 15° S 11:05:49 84° W 11:12:00 10° N
Cosmos 1315 Rocket 3.6 11:02:15 10° N 11:06:05 49° ENE 11:09:52 10° SSE
ERS-2 2.0 11:04:27 12° S 11:07:47 80° WSW 11:11:28 10° NNW
CZ-2D R/B 3.4 11:03:36 10° NNE 11:07:47 87° WNW 11:10:54 18° SSW
Cosmos 2227 Rocket 3.2 11:04:40 10° NW 11:09:12 25° WSW 11:11:16 20° SW
Cosmos 540 Rocket 4.2 11:06:34 22° WSW 11:09:20 37° WNW 11:14:07 10° N
Iridium 2 3.6 11:05:43 10° N 11:09:27 66° W 11:12:08 18° S
Meteor 2-17 Rocket 4.5 11:05:14 17° SSW 11:10:09 71° W 11:16:17 10° N
CZ-4C R/B 3.6 11:06:49 10° SSE 11:10:20 60° ENE 11:13:56 10° N
STARLINK-1208 3.8 11:06:47 10° WNW 11:10:46 47° SW 11:14:45 10° SSE
IRIDIUM 114 4.3 11:09:34 11° S 11:14:33 84° W 11:19:48 10° N
COBE Rocket 3.9 11:09:47 10° S 11:14:39 67° W 11:19:42 10° NNW
SL-16 R/B 3.0 11:10:01 10° S 11:15:24 47° ESE 11:20:50 10° NE
STARLINK-1271 3.9 11:11:47 10° WNW 11:15:43 42° SW 11:19:38 10° SSE
SL-24 DEB 4.4 11:13:50 10° N 11:18:28 75° E 11:23:02 10° S
STARLINK-42 2.9 11:18:29 24° SW 11:20:12 74° SE 11:23:24 10° NE
STARLINK-1154 4.0 11:16:48 10° WNW 11:20:40 38° SW 11:24:30 10° SSE
Cosmos 2154 Rocket 4.1 11:15:57 13° SSW 11:21:37 66° W 11:27:51 10° N
NOSS 2-1 (E) 4.2 11:18:58 12° S 11:21:46 35° ESE 11:24:56 10° NE
STARLINK-1311 3.1 11:21:03 23° SSW 11:22:40 53° SE 11:25:35 10° ENE
STARLINK-1316 3.5 11:21:40 20° SSW 11:23:28 47° SE 11:26:29 10° ENE
IRIDIUM 103 4.3 11:18:43 11° S 11:23:44 68° W 11:28:56 10° N
STARLINK-1257 3.4 11:22:32 20° SSW 11:24:23 48° SE 11:27:24 10° ENE
STARLINK 1040 4.0 11:23:38 16° W 11:25:02 26° NW 11:27:17 10° NNE
STARLINK-1256 3.4 11:23:24 20° SSW 11:25:16 50° SE 11:28:18 10° ENE
STARLINK-1301 3.5 11:23:05 19° SSW 11:25:18 57° SE 11:28:42 10° ENE
STARLINK-1197 4.2 11:21:50 10° WNW 11:25:36 34° SW 11:29:22 10° SSE
STARLINK-1213 3.3 11:24:16 20° SSW 11:26:11 51° SE 11:29:13 10° ENE
STARLINK-1263 3.3 11:25:08 19° SSW 11:27:05 52° SE 11:30:07 10° ENE
Cosmos 2221 2.5 11:23:08 10° NNW 11:27:27 67° W 11:31:46 10° S
STARLINK-1259 3.3 11:26:01 19° SSW 11:28:00 54° SE 11:31:02 10° ENE
STARLINK-1307 3.6 11:26:05 18° SSW 11:28:27 54° SE 11:31:51 10° ENE
STARLINK-1265 3.3 11:26:29 19° SSW 11:28:30 55° SE 11:31:34 10° ENE
STARLINK-1285 3.2 11:26:52 19° SSW 11:28:52 55° SE 11:31:55 10° ENE
STARLINK-1290 3.5 11:27:15 18° SSW 11:29:35 54° SE 11:32:54 10° ENE
STARLINK-1268 3.2 11:28:12 19° SSW 11:30:14 57° SE 11:33:16 10° ENE
Cosmos 372 Rocket 4.1 11:25:22 10° NNW 11:30:21 54° WSW 11:35:22 10° S
STARLINK-1198 4.3 11:26:56 10° WNW 11:30:36 31° SW 11:34:16 10° SSE
STARLINK-1296 3.2 11:28:38 18° SSW 11:30:42 58° SE 11:33:47 10° NE
STARLINK-1260 3.1 11:29:30 18° SSW 11:31:36 60° SE 11:34:41 10° NE
STARLINK-1297 3.4 11:29:43 17° SSW 11:32:08 58° SE 11:35:28 10° NE
STARLINK-1318 3.1 11:30:22 18° SSW 11:32:30 61° SE 11:35:35 10° NE
PSLV R/B 4.4 11:29:01 10° NNE 11:33:06 47° E 11:37:08 10° S
STARLINK-1275 3.1 11:31:11 18° SW 11:33:21 63° SE 11:36:27 10° NE
Cosmos 2151 4.3 11:29:49 10° SSE 11:33:46 40° E 11:37:47 10° NNE
STARLINK-62 3.8 11:31:48 15° SSW 11:34:10 41° SE 11:37:12 10° ENE
STARLINK-1309 3.0 11:32:05 17° SW 11:34:17 65° SE 11:37:22 10° NE
Cosmos 962 Rocket 4.5 11:28:36 10° S 11:34:42 84° W 11:40:53 10° N
STARLINK-1282 3.0 11:32:56 17° SW 11:35:10 66° SE 11:38:15 10° NE
STARLINK-1199 4.4 11:31:57 10° WNW 11:35:31 28° SW 11:39:04 10° S
STARLINK-34 3.7 11:33:38 14° SSW 11:36:04 44° SE 11:39:07 10° ENE
STARLINK-1313 2.8 11:33:59 17° SW 11:36:13 81° SE 11:39:20 10° NE
STARLINK-26 3.4 11:33:39 16° WSW 11:36:14 61° NW 11:39:39 10° NE
Cosmos 2058 3.0 11:32:41 10° SSW 11:36:48 65° W 11:41:00 10° N
STARLINK-1029 4.3 11:34:22 11° SSW 11:36:57 30° SE 11:39:47 10° ENE
STARLINK-55 3.2 11:34:45 16° WSW 11:37:08 59° NW 11:40:17 10° NE
STARLINK-1279 2.8 11:34:54 17° SW 11:37:11 83° SE 11:40:18 10° NE
STARLINK-1298 2.9 11:35:33 16° SW 11:37:52 72° SE 11:40:58 10° NE
STARLINK-1269 4.2 11:33:53 10° NW 11:38:00 61° NE 11:42:05 10° ESE
STARLINK-1293 2.9 11:36:26 16° SW 11:38:48 73° SE 11:41:55 10° NE
Meteor 1-28 Rocket 4.1 11:37:14 11° SSW 11:40:23 29° W 11:43:43 10° NW
STARLINK-1255 2.9 11:38:07 15° SW 11:40:32 77° SE 11:43:40 10° NE
Lacrosse 4 Rocket 2.3 11:38:06 10° NW 11:41:48 29° WSW 11:45:23 10° SSW
STARLINK-1200 4.0 11:38:52 10° NW 11:43:00 67° NE 11:47:07 10° ESE
BREEZE-M DEB (TANK) 4.3 11:42:13 10° NNW 11:43:59 16° NNE 11:46:28 10° ENE
CZ-4C R/B 4.1 11:42:47 10° W 11:46:26 19° NW 11:50:29 10° N
STARLINK-28 3.7 11:44:40 12° WSW 11:47:27 42° NW 11:50:31 10° NE
STARLINK-1192 3.9 11:43:51 10° NW 11:48:00 74° NE 11:52:07 10° SE
CZ-4B R/B 2.5 11:45:07 10° SSE 11:48:01 43° ENE 11:50:56 10° N
PAYLOAD A 4.3 11:43:49 10° NNE 11:48:28 61° E 11:53:10 10° S
ERBS 3.7 11:45:18 10° NNW 11:48:31 43° NE 11:51:44 10° ESE
STARLINK-1317 3.2 11:46:29 12° SW 11:49:40 79° NW 11:53:10 10° NE
Cosmos 1892 3.1 11:47:19 10° SSW 11:50:59 43° W 11:54:39 10° N
Cosmos 2360 Rocket 3.5 11:46:02 10° S 11:51:12 39° ESE 11:56:24 10° NE
STARLINK-41 3.3 11:48:58 11° WSW 11:51:51 52° NW 11:54:56 10° NE
STARLINK-1244 3.7 11:48:49 10° NW 11:52:58 81° NE 11:57:06 10° SE
SAR-Lupe-4 3.5 11:50:23 10° SSE 11:53:58 85° WSW 11:57:34 10° NNW
Cosmos 2084 Rocket 3.7 11:49:33 10° NNW 11:54:04 82° ENE 11:58:34 10° SE
STARLINK-64 4.4 11:51:26 10° SSW 11:54:44 36° SE 11:58:03 10° ENE
STARLINK-1291 3.0 11:51:45 11° SW 11:54:54 74° NW 11:58:11 10° NE
